When you browse on this site, cookies collect data to enhance your experience and personalize the content and advertising you see.
Visit our Privacy Policy to learn more. By continuing to use the site, you agree to this use of cookies and data.
  • In Hungary
  • List of Countries
  • For 7 days
  • Water Temperature
  • Satellite Maps
  • Weather Map
  • News
  • Weather Widgets
  • user-avatar
    Login

    Hourly Weather K'obulet'i

    Today, 16 February, Saturday

    Time Temperature Precipitation Wind Pressure Humidity
    00:00 +8°C° 0.2 mm 3 mps 763 mmHg 91%
    01:00 +8°C° 0.5 mm 3 mps 763 mmHg 91%
    02:00 +8°C° 0.5 mm 3 mps 763 mmHg 92%
    03:00 +7°C° 0 mm 4 mps 763 mmHg 91%
    04:00 +7°C° 0.9 mm 4 mps 763 mmHg 91%
    05:00 +7°C° 0.9 mm 4 mps 764 mmHg 91%
    06:00 +6°C° 0.9 mm 4 mps 764 mmHg 91%
    07:00 +6°C° 0.8 mm 5 mps 764 mmHg 89%
    08:00 +6°C° 0.8 mm 5 mps 764 mmHg 86%
    09:00 +6°C° 0.8 mm 5 mps 764 mmHg 84%
    10:00 +7°C° 0.4 mm 5 mps 764 mmHg 82%
    11:00 +7°C° 0.4 mm 6 mps 764 mmHg 80%
    12:00 +7°C° 0.4 mm 6 mps 764 mmHg 78%
    13:00 +6°C° 1.2 mm 7 mps 764 mmHg 82%
    14:00 +5°C° 1.2 mm 7 mps 764 mmHg 85%
    15:00 +5°C° 1.2 mm 7 mps 764 mmHg 89%
    16:00 +5°C° 1.9 mm 7 mps 765 mmHg 89%
    17:00 +5°C° 1.9 mm 7 mps 765 mmHg 89%
    18:00 +5°C° 1.9 mm 6 mps 765 mmHg 89%
    19:00 +4°C° 0.8 mm 6 mps 766 mmHg 89%
    20:00 +4°C° 0.8 mm 6 mps 766 mmHg 88%
    21:00 +4°C° 0.8 mm 6 mps 766 mmHg 87%
    22:00 +4°C° 0.4 mm 6 mps 767 mmHg 87%
    23:00 +5°C° 0.4 mm 5 mps 767 mmHg 87%

    Tomorrow, 17 February, Sunday

    Time Temperature Precipitation Wind Pressure Humidity
    00:00 +5°C° 0.4 mm 5 mps 767 mmHg 87%
    01:00 +5°C° 0.4 mm 5 mps 767 mmHg 87%
    02:00 +5°C° 0.4 mm 5 mps 767 mmHg 86%
    03:00 +5°C° 0.4 mm 5 mps 768 mmHg 86%
    04:00 +4°C° 0.2 mm 4 mps 768 mmHg 86%
    05:00 +4°C° 0.2 mm 4 mps 768 mmHg 85%
    06:00 +4°C° 0.2 mm 4 mps 768 mmHg 85%
    07:00 +4°C° 0.1 mm 4 mps 768 mmHg 81%
    08:00 +4°C° 0.1 mm 4 mps 768 mmHg 77%
    09:00 +5°C° 0.1 mm 4 mps 769 mmHg 73%
    10:00 +5°C° 0.1 mm 4 mps 768 mmHg 72%
    11:00 +5°C° 0.1 mm 4 mps 768 mmHg 72%
    12:00 +6°C° 0.1 mm 5 mps 768 mmHg 71%
    13:00 +6°C° 0.1 mm 4 mps 768 mmHg 71%
    14:00 +6°C° 0.1 mm 4 mps 767 mmHg 72%
    15:00 +6°C° 0.1 mm 4 mps 767 mmHg 73%
    16:00 +5°C° 0.1 mm 4 mps 767 mmHg 73%
    17:00 +5°C° 0.1 mm 3 mps 768 mmHg 74%
    18:00 +5°C° 0.1 mm 3 mps 768 mmHg 74%
    19:00 +5°C° 0 mm 3 mps 768 mmHg 73%
    20:00 +4°C° 0 mm 3 mps 768 mmHg 72%
    21:00 +5°C° 0 mm 2 mps 769 mmHg 71%
    22:00 +5°C° 0 mm 2 mps 768 mmHg 71%
    23:00 +5°C° 0 mm 2 mps 768 mmHg 71%

    Day after tomorrow, 18 February, Monday

    Time Temperature Precipitation Wind Pressure Humidity
    00:00 +5°C° 0 mm 2 mps 768 mmHg 70%
    01:00 +5°C° 0 mm 2 mps 768 mmHg 70%
    02:00 +5°C° 0 mm 2 mps 768 mmHg 70%
    03:00 +5°C° 0 mm 2 mps 767 mmHg 70%
    04:00 +5°C° 0 mm 2 mps 767 mmHg 70%
    05:00 +5°C° 0 mm 2 mps 767 mmHg 70%
    06:00 +5°C° 0 mm 2 mps 767 mmHg 70%
    07:00 +5°C° 0 mm 2 mps 766 mmHg 68%
    08:00 +6°C° 0 mm 2 mps 766 mmHg 66%
    09:00 +7°C° 0 mm 2 mps 766 mmHg 64%
    10:00 +8°C° 0 mm 2 mps 765 mmHg 61%
    11:00 +8°C° 0 mm 3 mps 764 mmHg 58%
    12:00 +9°C° 0 mm 3 mps 764 mmHg 55%
    13:00 +8°C° 0 mm 4 mps 763 mmHg 57%
    14:00 +8°C° 0 mm 4 mps 763 mmHg 58%
    15:00 +8°C° 0 mm 4 mps 763 mmHg 59%
    16:00 +7°C° 0.3 mm 4 mps 763 mmHg 63%
    17:00 +6°C° 0.3 mm 4 mps 763 mmHg 67%
    18:00 +6°C° 0.3 mm 4 mps 763 mmHg 71%
    19:00 +6°C° 0.2 mm 4 mps 763 mmHg 71%
    20:00 +6°C° 0.2 mm 5 mps 763 mmHg 71%
    21:00 +6°C° 0.2 mm 5 mps 763 mmHg 71%
    22:00 +6°C° 0.2 mm 5 mps 763 mmHg 72%
    23:00 +5°C° 0.2 mm 6 mps 763 mmHg 72%

    19 February, Tuesday

    Time Temperature Precipitation Wind Pressure Humidity
    00:00 +4°C° 0.2 mm 6 mps 763 mmHg 73%
    01:00 +4°C° 0.8 mm 6 mps 763 mmHg 77%
    02:00 +4°C° 0.8 mm 6 mps 763 mmHg 80%
    03:00 +4°C° 0.8 mm 6 mps 763 mmHg 84%
    04:00 +4°C° 1 mm 6 mps 763 mmHg 86%
    05:00 +4°C° 1 mm 6 mps 763 mmHg 87%
    06:00 +4°C° 1 mm 6 mps 763 mmHg 89%
    07:00 +5°C° 0.2 mm 5 mps 764 mmHg 87%
    08:00 +5°C° 0.2 mm 5 mps 764 mmHg 85%
    09:00 +5°C° 0.2 mm 5 mps 765 mmHg 83%
    10:00 +5°C° 0.1 mm 5 mps 765 mmHg 81%
    11:00 +6°C° 0.1 mm 5 mps 765 mmHg 80%
    12:00 +6°C° 0.1 mm 5 mps 766 mmHg 78%
    13:00 +6°C° 0.1 mm 5 mps 766 mmHg 77%
    14:00 +6°C° 0.1 mm 4 mps 766 mmHg 75%
    15:00 +6°C° 0.1 mm 4 mps 766 mmHg 74%
    16:00 +7°C° 0 mm 3 mps 767 mmHg 75%
    17:00 +5°C° 0 mm 3 mps 768 mmHg 77%
    18:00 +5°C° 0 mm 2 mps 768 mmHg 78%
    19:00 +5°C° 0 mm 2 mps 769 mmHg 78%
    20:00 +5°C° 0 mm 2 mps 770 mmHg 77%
    21:00 +4°C° 0 mm 2 mps 770 mmHg 77%
    22:00 +4°C° 0 mm 2 mps 770 mmHg 75%
    23:00 +4°C° 0 mm 2 mps 770 mmHg 74%

    20 February, Wednesday

    Time Temperature Precipitation Wind Pressure Humidity
    00:00 +3°C° 0 mm 2 mps 771 mmHg 73%
    01:00 +3°C° 0 mm 2 mps 771 mmHg 71%
    02:00 +3°C° 0 mm 2 mps 770 mmHg 70%
    03:00 +3°C° 0 mm 2 mps 770 mmHg 68%
    04:00 +3°C° 0 mm 2 mps 770 mmHg 67%
    05:00 +3°C° 0 mm 2 mps 770 mmHg 66%
    06:00 +2°C° 0 mm 3 mps 770 mmHg 65%
    07:00 +4°C° 0 mm 2 mps 770 mmHg 63%
    08:00 +5°C° 0 mm 2 mps 770 mmHg 61%
    09:00 +6°C° 0 mm 2 mps 770 mmHg 59%
    10:00 +8°C° 0 mm 2 mps 769 mmHg 57%
    11:00 +9°C° 0 mm 2 mps 768 mmHg 56%
    12:00 +12°C° 0 mm 2 mps 768 mmHg 54%
    13:00 +12°C° 0 mm 2 mps 767 mmHg 55%
    14:00 +12°C° 0 mm 1 mps 767 mmHg 56%
    15:00 +13°C° 0 mm 1 mps 767 mmHg 57%
    16:00 +11°C° 0 mm 1 mps 767 mmHg 61%
    17:00 +10°C° 0 mm 1 mps 768 mmHg 65%
    18:00 +7°C° 0 mm 0 mps 768 mmHg 69%
    19:00 +8°C° 0 mm 1 mps 768 mmHg 69%
    20:00 +8°C° 0 mm 1 mps 769 mmHg 68%
    21:00 +8°C° 0 mm 1 mps 769 mmHg 68%
    22:00 +6°C° 0 mm 2 mps 769 mmHg 68%
    23:00 +6°C° 0 mm 2 mps 769 mmHg 68%

    21 February, Thursday

    Time Temperature Precipitation Wind Pressure Humidity
    00:00 +6°C° 0 mm 2 mps 769 mmHg 68%
    01:00 +6°C° 0 mm 2 mps 769 mmHg 67%
    02:00 +6°C° 0 mm 2 mps 769 mmHg 67%
    03:00 +6°C° 0 mm 2 mps 769 mmHg 66%
    04:00 +5°C° 0 mm 2 mps 768 mmHg 65%
    05:00 +5°C° 0 mm 2 mps 768 mmHg 64%
    06:00 +5°C° 0 mm 2 mps 768 mmHg 63%
    07:00 +6°C° 0 mm 2 mps 768 mmHg 62%
    08:00 +7°C° 0 mm 2 mps 768 mmHg 60%
    09:00 +9°C° 0 mm 2 mps 768 mmHg 58%
    10:00 +11°C° 0 mm 1 mps 767 mmHg 56%
    11:00 +12°C° 0 mm 1 mps 767 mmHg 54%
    12:00 +13°C° 0 mm 1 mps 766 mmHg 53%
    13:00 +13°C° 0 mm 1 mps 766 mmHg 52%
    14:00 +13°C° 0 mm 1 mps 766 mmHg 51%
    15:00 +13°C° 0 mm 1 mps 765 mmHg 50%
    16:00 +12°C° 0 mm 1 mps 766 mmHg 54%
    17:00 +10°C° 0 mm 1 mps 766 mmHg 57%
    18:00 +9°C° 0 mm 1 mps 767 mmHg 60%
    19:00 +8°C° 0 mm 2 mps 767 mmHg 60%
    20:00 +7°C° 0 mm 2 mps 768 mmHg 61%
    21:00 +7°C° 0 mm 2 mps 768 mmHg 61%
    22:00 +7°C° 0 mm 2 mps 768 mmHg 61%
    23:00 +7°C° 0 mm 2 mps 768 mmHg 61%
    Show more